Location: Finkenwalde
(53.3770°N, 14.6418°E)
Time: 10:33:42
(UTC+00:00)

Lacrosse 5 - Pass Details

Date: 05 February 2023
Orbit: 714 x 724 km, 57.0° (Epoch: 09 March)

Event Time Altitude Azimuth Distance (km) Brightness Sun altitude
Rises 16:42:14 0° 215° (SW) 3,126 6.1 -7.8°
Reaches altitude 10° 16:44:42 10° 208° (SSW) 2,209 5.1 -8.2°
Maximum altitude 16:49:29 42° 139° (SE) 1,030 2.5 -8.9°
Enters shadow 16:53:52 12° 71° (ENE) 2,072 3.6 -9.5°
